Regional Weather Roundup
Issued by NWS Raleigh/Durham, NC

Current Version | Previous Version | Text Only | Print | Product List | Glossary On
Versions: 1 2 3 4 5 6 7 8 9 10 11 12 13 14 15 16 17 18 19 20 21 22 23 24 25 26 27 28 29 30 31 32 33 34 35 36 37 38 39 40 41 42 43 44 45 46 47 48 49 50
000
ASUS42 KRAH 012110
RWRRAH
NORTH CAROLINA WEATHER ROUNDUP
NATIONAL WEATHER SERVICE RALEIGH NC
500 PM EDT SAT AUG 01 2015

NOTE: "FAIR" INDICATES FEW OR NO CLOUDS BELOW 12,000 FEET WITH NO
SIGNIFICANT WEATHER AND/OR OBSTRUCTIONS TO VISIBILITY.

NCZ001-053-055-056-065-067-012200-
WESTERN NORTH CAROLINA

CITY           SKY/WX    TMP DP  RH WIND       PRES   REMARKS
ASHEVILLE      SUNNY     85  52  32 NW13      30.03F
JEFFERSON      PTSUNNY   76  48  36 NW8G16    30.07S
MORGANTON      SUNNY     91  47  22 N9        29.99F
HICKORY        SUNNY     91  50  24 SW9       29.94F
RUTHERFORDTON  SUNNY     91  52  26 NE5       29.94F
MOUNT AIRY     MOSUNNY   90  53  29 W5        29.96S
BOONE          MOSUNNY   78  52  40 W7        30.08F
$$

NCZ021-022-025-041-071-084-088-012200-
CENTRAL NORTH CAROLINA

CITY           SKY/WX    TMP DP  RH WIND       PRES   REMARKS
CHARLOTTE      MOSUNNY   94  51  23 W7        29.91F
GREENSBORO     MOSUNNY   91  56  30 NW12      29.91F
WINSTON-SALEM  SUNNY     89  52  28 VRB5      29.93F
RALEIGH-DURHAM MOSUNNY   92  58  31 SW8       29.88F
FORT BRAGG     MOSUNNY   93  55  27 CALM      29.85F
FAYETTEVILLE   PTSUNNY   94  61  33 E8        29.86F
BURLINGTON     SUNNY     92  58  31 SW9       29.89F
LAURINBURG     MOSUNNY   94  57  28 CALM      29.87F
$$

NCZ011-015-027-028-043-044-047-080-103-012200-
NORTHEASTERN NORTH CAROLINA

CITY           SKY/WX    TMP DP  RH WIND       PRES   REMARKS
ROCKY MT-WILSO SUNNY     95  55  26 W8        29.87S
GREENVILLE     SUNNY     91  63  38 W6        29.88F
WASHINGTON     SUNNY     91  63  39 CALM      29.86F
ELIZABETH CITY SUNNY     88  70  55 S10       29.86F
MANTEO         CLOUDY    86  72  62 S9        29.87F
CAPE HATTERAS  CLOUDY    84  75  74 SW8       29.89F
$$

NCZ078-087-090-091-093-098-101-012200-
SOUTHEASTERN NORTH CAROLINA

CITY           SKY/WX    TMP DP  RH WIND       PRES   REMARKS
LUMBERTON      MOSUNNY   95  60  31 VRB7      29.86F HX  95
GOLDSBORO      SUNNY     93  66  40 VRB2      29.84F HX  96
KINSTON        SUNNY     91  52  25 NW7       29.87
KENANSVILLE    SUNNY     91  57  32 CALM      29.88F
NEW BERN       MOSUNNY   92  63  38 SW5       29.87F
CHERRY POINT   MOSUNNY   85  76  74 S10       29.88F
BEAUFORT       PTSUNNY   83  78  85 SW15      29.89F
JACKSONVILLE   SUNNY     87  75  67 S14       29.86F HX  96
WILMINGTON     CLOUDY    86  75  69 SE10G21   29.87F HX  95
$$




USA.gov is the U.S. government's official web portal to all federal, state and local government web resources and services.